Location: Gniazdowice
(50.2124°N, 20.2673°E)
Time: 02:23:01
(UTC+00:00)

USA 234 - Pass Details

Date: 23 May 2024
Orbit: 1100 x 1107 km, 123.0° (Epoch: 16 June)

Event Time Altitude Azimuth Distance (km) Brightness Sun altitude
Exits shadow 00:56:34 14° 195° (SSW) 2,633 4.7 -12.6°
Maximum altitude 01:00:11 22° 235° (SW) 2,182 4.3 -12.3°
Drops below altitude 10° 01:05:07 10° 284° (WNW) 2,963 5.3 -11.8°
Sets 01:08:16 0° 299° (WNW) 3,924 6.1 -11.5°
